Temp
59 60 63 64 61 60 60 60 62 63 64 65 65 66 67 66 66 74 68 69 70 69 68 82 83 83 82 77 78 78 71 67 69 71 72 78 75 80 81 79 80 80 82 85 84
58 58 60 63 63 60 60 60 62 62 62 62 64 66 66 66 72 71 70 69 69 69 77 76 76 79 78 74 76 75 69 70 74 76 74 76 78 76 76 77 76 77 79 84 82
57 57 58 60 63 62 61 61 61 62 62 61 61 63 64 68 67 70 68 69 69 71 76 76 77 76 72 75 72 71 69 70 70 72 75 75 75 79 76 73 79 78 78 80 79
57 57 57 58 59 63 62 61 61 62 62 61 59 60 61 69 56 71 68 69 69 73 75 73 74 71 70 68 71 67 68 70 68 68 70 71 77 72 76 78 82 83 83 80 78
58 57 57 57 58 61 63 62 61 62 62 61 60 58 58 60 65 73 67 69 74 74 71 72 70 70 66 70 69 68 68 68 67 67 69 69 70 72 74 81 78 80 82 79 79
58 58 57 57 57 59 62 63 62 62 62 62 61 61 54 47 70 75 73 72 75 74 70 72 71 70 68 67 67 68 67 67 67 67 67 65 69 67 75 81 78 76 78 80 80
59 58 58 57 57 59 61 62 62 62 62 62 61 62 54 54 73 75 72 71 72 74 69 71 72 69 69 62 66 66 62 64 65 66 65 66 63 63 76 74 75 77 79 80 80
59 58 58 58 57 58 60 61 62 62 62 63 63 65 56 68 74 70 73 70 73 74 73 72 74 68 67 66 64 61 63 58 63 63 64 64 60 69 74 71 72 76 78 78 79
58 58 57 57 57 57 58 60 61 62 62 63 61 61 55 65 63 71 73 67 69 71 72 73 72 66 64 59 56 58 56 58 57 63 62 62 61 65 66 67 69 74 76 77 76
58 58 58 58 57 57 57 59 61 61 60 64 63 54 58 56 64 66 71 70 65 65 63 64 65 61 62 58 50 55 54 55 58 58 59 60 59 65 65 64 66 71 74 74 74
58 58 58 58 58 58 56 55 49 48 52 51 53 55 57 63 66 63 67 65 65 63 55 60 56 53 58 61 62 58 59 58 59 57 56 59 59 63 68 66 65 67 70 71 72
58 58 58 58 59 58 55 49 49 53 42 54 54 57 60 62 52 59 66 58 57 52 59 52 50 62 63 60 57 57 54 55 54 55 54 58 57 62 65 65 66 67 69 71 71
57 57 58 58 58 57 54 51 54 55 44 47 53 53 54 58 54 54 60 59 54 53 52 52 55 57 55 54 53 54 53 53 52 53 56 54 55 60 65 66 68 68 70 72 72
57 57 57 57 52 56 52 53 54 54 35 39 44 52 54 58 50 60 63 60 55 50 52 54 54 52 52 52 55 49 56 53 50 49 47 54 47 58 61 60 59 63 65 67 69
57 57 57 57 51 49 54 55 54 50 27 41 43 61 57 53 51 51 60 58 49 51 52 47 48 48 48 52 56 52 54 53 51 48 45 49 45 57 57 57 63 62 60 64 63
56 56 57 56 54 52 56 55 49 32 26 36 43 43 47 51 50 52 53 58 58 50 52 47 53 53 52 54 55 54 51 50 49 47 36 47 46 54 57 57 61 61 62 58 58
56 56 56 59 51 54 53 47 31 28 36 34 37 43 46 43 45 48 46 45 44 38 39 45 45 49 52 45 50 51 46 34 33 32 36 43 42 52 57 57 58 58 59 57 56
55 55 55 60 57 54 46 36 28 34 33 38 41 43 39 44 45 45 44 42 51 49 43 38 32 44 50 49 44 46 47 37 30 33 41 40 37 50 54 54 54 54 57 55 56
55 54 54 56 57 54 39 29 31 34 37 37 39 36 36 44 43 43 44 44 48 51 43 39 37 48 50 50 51 44 39 49 38 31 36 45 49 56 56 52 52 52 52 53 54
50 49 50 57 56 47 34 32 33 39 39 38 33 36 32 39 40 40 41 50 47 52 52 49 34 45 46 50 50 49 52 37 41 30 30 44 43 48 49 51 51 51 52 53 54
49 42 50 57 55 40 32 32 34 42 43 34 33 34 37 39 44 40 41 48 52 49 51 51 45 37 44 43 44 44 41 45 45 39 35 36 44 56 55 54 54 54 55 55 54
44 33 51 54 35 33 32 34 42 40 41 37 36 34 38 43 40 41 41 48 55 51 43 49 43 33 39 44 47 51 48 46 40 35 40 36 42 54 56 55 54 56 55 57 57
34 38 48 48 31 31 34 35 41 37 37 38 36 35 38 42 36 43 45 53 54 50 46 46 39 30 32 40 44 42 46 49 48 43 38 35 44 54 54 54 54 55 56 56 56
37 32 37 42 42 36 32 32 34 41 39 41 39 40 35 39 43 40 43 45 51 51 48 49 44 43 38 42 45 39 43 46 44 35 40 42 47 51 52 53 55 55 57 58 56
35 32 34 31 31 37 39 36 34 33 41 42 37 41 36 33 35 38 44 42 48 48 50 49 35 43 42 43 46 44 44 45 42 43 40 45 47 53 56 57 57 58 58 58 57
33 34 37 34 40 36 37 34 35 37 38 35 37 42 40 36 38 37 43 44 42 47 47 50 35 41 33 39 40 39 43 46 46 46 46 47 46 59 62 62 58 57 57 56 57
42 45 41 36 35 35 34 37 37 42 42 44 42 42 39 43 48 48 50 52 49 44 44 43 34 33 31 36 37 31 36 41 45 49 48 42 50 57 56 57 59 58 58 56 58
MSLP
1013.14 1012.46 1011.76 1012.01 1012.50 1012.65 1013.32 1013.49 1013.65 1013.47 1013.85 1014.10 1014.36 1014.66 1014.66 1014.51 1014.02 1013.57 1012.96 1013.66 1013.73 1013.79 1013.54 1012.24 1011.40 1011.04 1010.70 1010.61 1010.67 1010.29 1009.00 1008.21 1008.08 1008.06 1008.54 1009.51 1009.68 1010.37 1010.83 1010.99 1011.42 1011.97 1011.90 1012.31 1013.87
1012.87 1012.89 1012.39 1012.11 1012.21 1012.69 1013.01 1013.17 1013.65 1013.05 1013.81 1014.38 1014.76 1014.77 1014.64 1014.60 1014.02 1013.37 1013.77 1013.75 1013.95 1013.94 1013.12 1012.12 1011.38 1011.03 1010.43 1010.70 1010.73 1010.11 1009.51 1008.89 1009.36 1009.36 1009.46 1009.97 1009.91 1010.60 1011.01 1011.07 1011.52 1012.15 1012.81 1013.02 1014.03
1012.66 1012.90 1012.45 1012.04 1011.92 1012.36 1012.56 1013.02 1012.91 1013.03 1013.28 1014.93 1014.81 1015.10 1014.97 1014.64 1013.86 1012.84 1013.70 1013.88 1014.06 1013.96 1013.10 1012.61 1011.85 1011.21 1010.79 1010.80 1011.09 1010.78 1010.09 1010.54 1010.99 1011.08 1010.73 1010.66 1010.75 1010.86 1010.77 1010.79 1010.85 1011.46 1012.53 1013.23 1013.99
1012.47 1012.41 1011.95 1011.80 1011.61 1011.64 1012.11 1012.44 1012.35 1012.82 1013.95 1014.46 1014.80 1014.96 1015.35 1014.75 1013.74 1013.12 1013.82 1013.98 1013.96 1013.66 1013.03 1012.49 1011.80 1011.28 1011.04 1010.90 1011.40 1011.37 1011.56 1011.45 1011.98 1012.26 1011.95 1011.54 1011.28 1011.38 1011.21 1011.00 1011.26 1011.49 1012.11 1013.17 1013.72
1012.15 1011.93 1012.11 1011.81 1011.48 1011.01 1011.27 1011.98 1012.31 1012.63 1012.93 1014.02 1014.70 1015.39 1015.34 1014.82 1013.14 1013.53 1013.85 1013.83 1013.51 1013.32 1012.81 1012.29 1011.83 1011.55 1011.33 1011.32 1011.75 1011.65 1012.05 1012.35 1012.72 1012.91 1012.81 1012.76 1012.18 1011.89 1011.49 1011.37 1012.16 1012.32 1012.35 1012.96 1013.42
1012.02 1011.98 1012.07 1011.73 1011.38 1011.34 1011.27 1011.27 1012.01 1012.38 1013.15 1014.04 1013.99 1015.45 1016.58 1015.35 1013.33 1013.40 1013.38 1013.44 1013.10 1012.88 1012.86 1012.51 1012.08 1012.22 1011.99 1012.00 1012.14 1012.45 1012.68 1012.90 1013.20 1013.30 1013.46 1013.27 1012.72 1012.82 1011.79 1011.83 1012.20 1012.62 1012.73 1012.82 1013.16
1011.81 1012.26 1011.97 1011.47 1011.34 1011.38 1011.23 1011.48 1011.90 1012.19 1012.98 1013.85 1014.34 1015.01 1015.47 1014.35 1013.38 1013.61 1013.35 1013.26 1013.31 1012.95 1012.85 1013.09 1012.87 1012.56 1012.61 1012.76 1013.20 1013.04 1013.04 1013.38 1013.41 1013.61 1013.67 1013.78 1013.08 1012.52 1012.13 1012.63 1012.43 1012.35 1012.42 1012.70 1012.98
1012.01 1012.02 1011.74 1011.36 1011.56 1011.49 1011.18 1011.45 1011.60 1012.25 1012.83 1014.14 1014.18 1014.48 1013.67 1013.66 1013.24 1013.53 1013.25 1013.40 1013.46 1013.40 1013.20 1013.42 1013.25 1013.14 1013.11 1013.55 1013.47 1013.16 1013.11 1012.99 1013.36 1014.02 1014.18 1014.22 1012.63 1012.18 1012.45 1012.91 1012.55 1012.29 1012.20 1012.55 1012.90
1011.80 1011.75 1011.19 1011.33 1011.46 1011.92 1011.20 1011.40 1011.84 1012.38 1013.10 1013.81 1014.07 1014.08 1013.24 1013.47 1013.42 1013.23 1013.20 1013.18 1013.57 1013.63 1013.66 1013.72 1013.31 1013.29 1013.78 1013.34 1013.31 1013.14 1012.29 1012.71 1013.71 1014.19 1014.14 1014.21 1012.90 1013.09 1013.45 1013.30 1012.81 1012.39 1012.34 1012.58 1013.12
1011.29 1010.70 1011.14 1011.38 1011.58 1012.10 1011.84 1011.49 1012.23 1012.95 1013.59 1013.99 1014.16 1014.45 1013.23 1012.62 1012.92 1013.30 1013.47 1013.33 1013.41 1013.77 1013.99 1013.85 1013.43 1013.19 1013.13 1012.80 1012.04 1012.22 1012.60 1012.97 1013.32 1014.32 1014.43 1013.95 1013.32 1013.21 1013.57 1013.64 1013.14 1012.79 1012.65 1012.81 1013.28
1010.92 1011.39 1011.55 1011.52 1011.30 1011.83 1011.82 1011.62 1012.85 1013.36 1013.67 1013.01 1013.30 1012.25 1011.86 1012.63 1013.40 1013.43 1013.66 1013.57 1013.42 1013.60 1013.42 1013.81 1013.36 1012.39 1012.48 1012.57 1012.52 1012.60 1012.48 1012.81 1013.60 1014.82 1014.72 1013.85 1013.32 1013.03 1013.03 1013.19 1013.17 1012.99 1012.96 1013.09 1013.61
1011.08 1011.17 1011.11 1011.30 1011.69 1011.90 1011.81 1012.39 1012.73 1013.12 1013.84 1013.62 1013.37 1013.03 1013.23 1012.82 1013.36 1013.61 1013.83 1013.66 1013.30 1013.10 1013.28 1014.30 1013.05 1012.43 1012.54 1013.03 1013.35 1013.12 1013.21 1013.61 1014.74 1015.32 1015.16 1014.06 1013.25 1012.74 1012.65 1012.42 1012.68 1012.78 1012.83 1013.00 1013.63
1010.74 1010.94 1011.03 1011.34 1011.30 1011.55 1012.01 1012.69 1013.41 1013.03 1013.31 1013.60 1013.30 1012.94 1013.04 1013.06 1012.99 1013.33 1013.62 1013.35 1013.30 1013.07 1013.33 1012.99 1013.08 1013.47 1013.75 1013.90 1013.80 1013.79 1013.78 1014.26 1015.05 1015.49 1015.19 1014.55 1012.70 1011.62 1011.43 1011.86 1012.17 1012.57 1012.84 1012.93 1013.30
1010.47 1010.67 1010.89 1011.12 1011.69 1011.40 1012.04 1012.78 1013.02 1013.15 1013.32 1013.19 1012.89 1012.57 1012.89 1012.71 1013.36 1013.72 1013.60 1013.26 1013.33 1013.29 1013.94 1013.76 1014.19 1014.25 1014.23 1014.14 1014.20 1014.32 1014.78 1015.18 1015.75 1015.85 1015.14 1014.93 1012.59 1011.32 1011.42 1011.86 1012.52 1012.78 1013.16 1013.37 1013.65
1010.22 1010.55 1011.04 1011.20 1011.18 1011.34 1011.89 1012.38 1013.08 1013.55 1013.18 1012.56 1012.57 1011.81 1012.34 1012.55 1012.98 1013.92 1014.06 1013.84 1013.49 1013.51 1014.19 1014.36 1014.57 1014.59 1014.64 1014.48 1014.87 1014.94 1015.59 1015.89 1016.26 1016.32 1016.22 1015.09 1014.39 1011.36 1011.77 1011.72 1011.91 1012.97 1013.77 1014.01 1014.73
1010.13 1010.67 1011.23 1011.47 1011.35 1011.93 1011.76 1012.57 1013.75 1014.38 1012.79 1012.01 1011.80 1011.67 1012.12 1012.41 1012.89 1013.50 1013.97 1014.14 1014.10 1014.51 1014.86 1015.45 1015.58 1015.27 1015.26 1015.48 1015.80 1016.29 1016.43 1016.83 1017.15 1016.99 1016.26 1014.85 1014.46 1011.49 1011.54 1011.92 1012.38 1013.50 1014.02 1015.14 1015.61
1010.21 1010.58 1011.23 1010.97 1011.36 1012.09 1012.16 1012.69 1014.16 1013.73 1012.95 1012.35 1011.52 1011.54 1011.97 1012.31 1012.88 1013.28 1013.59 1013.83 1013.42 1014.28 1015.04 1015.76 1016.09 1016.32 1016.22 1016.37 1017.00 1016.51 1016.52 1017.25 1017.64 1017.48 1015.85 1015.38 1014.89 1012.20 1012.44 1013.06 1013.63 1014.31 1014.80 1015.70 1016.28
1010.31 1010.77 1011.16 1011.03 1011.64 1012.02 1012.91 1013.48 1013.32 1012.96 1012.88 1012.33 1011.67 1012.13 1012.11 1012.26 1012.88 1013.17 1013.44 1013.26 1013.20 1013.38 1013.95 1014.70 1016.36 1016.29 1016.45 1015.88 1016.11 1016.49 1016.25 1016.20 1016.54 1016.60 1015.64 1016.07 1014.11 1012.37 1013.26 1013.95 1014.66 1015.29 1015.52 1016.23 1016.65
1010.49 1011.04 1011.38 1011.53 1011.85 1012.14 1014.04 1013.46 1012.73 1012.54 1012.41 1012.36 1012.24 1012.10 1012.12 1012.02 1012.36 1012.90 1012.90 1012.77 1012.98 1013.11 1013.02 1013.87 1015.30 1016.37 1016.48 1016.40 1016.29 1016.90 1016.82 1016.63 1016.61 1017.45 1016.34 1014.24 1013.23 1012.64 1013.08 1014.01 1014.75 1015.43 1016.03 1016.49 1016.91
1010.47 1011.31 1011.76 1012.00 1012.28 1012.80 1013.77 1013.35 1013.09 1012.71 1012.46 1012.63 1012.62 1012.06 1011.76 1011.63 1011.95 1012.21 1012.40 1012.10 1012.61 1013.01 1013.31 1013.17 1015.02 1016.46 1016.95 1016.82 1016.72 1016.16 1016.17 1016.89 1016.56 1016.41 1015.27 1013.20 1012.89 1011.98 1012.87 1013.48 1014.44 1015.21 1015.82 1016.43 1016.98
1010.75 1011.49 1012.25 1012.40 1012.46 1013.06 1013.55 1013.63 1013.31 1013.18 1012.89 1013.41 1013.37 1012.85 1012.13 1011.42 1011.52 1011.75 1011.89 1011.72 1012.05 1012.91 1013.35 1013.27 1014.00 1016.82 1017.05 1016.42 1015.77 1016.27 1016.06 1015.97 1015.74 1015.79 1014.76 1013.45 1011.97 1011.85 1012.35 1013.32 1013.97 1014.74 1015.47 1016.10 1016.70
1011.20 1012.27 1012.92 1012.63 1013.00 1013.57 1013.48 1013.49 1013.01 1012.86 1013.30 1013.72 1013.99 1013.81 1012.41 1011.62 1011.64 1011.60 1011.21 1011.21 1011.73 1012.51 1012.97 1013.49 1014.46 1015.91 1016.24 1016.55 1016.15 1015.45 1015.31 1015.45 1014.95 1015.48 1014.94 1014.34 1012.45 1012.45 1012.78 1013.43 1014.10 1014.49 1015.19 1015.71 1016.30
1012.21 1012.90 1013.50 1013.44 1013.12 1013.44 1013.72 1013.49 1012.96 1012.79 1013.46 1013.80 1013.74 1013.54 1013.01 1011.70 1011.64 1011.35 1011.26 1011.47 1011.83 1012.36 1012.33 1013.33 1014.23 1015.47 1016.44 1016.70 1016.42 1015.73 1015.67 1015.11 1015.09 1015.12 1014.17 1013.87 1012.14 1012.64 1013.03 1013.45 1013.79 1014.10 1014.72 1015.43 1015.95
1012.56 1013.30 1013.72 1013.62 1013.49 1013.17 1013.36 1013.38 1013.43 1013.17 1013.49 1013.49 1013.40 1013.27 1013.45 1012.17 1011.58 1011.44 1011.69 1012.22 1012.22 1012.53 1012.76 1013.14 1013.41 1013.16 1013.38 1013.80 1014.28 1015.04 1014.91 1015.00 1014.98 1014.39 1013.55 1012.28 1012.14 1012.34 1012.55 1012.72 1013.17 1013.70 1014.19 1014.86 1015.66
1012.86 1013.07 1013.15 1013.24 1013.46 1013.18 1013.02 1012.92 1012.87 1013.11 1013.13 1013.32 1013.09 1012.43 1012.65 1012.58 1012.28 1011.77 1011.74 1012.51 1012.74 1012.77 1013.15 1013.52 1013.68 1013.88 1014.50 1014.56 1014.14 1014.17 1014.02 1014.07 1013.79 1013.36 1012.69 1011.86 1011.39 1011.42 1011.65 1012.04 1012.58 1012.99 1013.82 1014.42 1014.99
1012.87 1012.65 1012.93 1012.77 1012.82 1013.30 1013.28 1012.62 1012.32 1012.40 1012.55 1012.62 1012.10 1012.11 1012.48 1012.32 1012.05 1012.02 1011.66 1011.88 1012.11 1012.89 1013.12 1013.37 1014.02 1014.44 1015.16 1015.25 1015.08 1014.56 1013.82 1013.19 1012.82 1012.86 1012.50 1012.03 1010.71 1010.85 1011.02 1011.52 1012.22 1012.80 1013.33 1013.98 1014.33
1012.70 1012.41 1012.26 1012.42 1012.42 1012.78 1011.69 1010.65 1010.58 1011.59 1011.89 1011.51 1011.93 1011.92 1012.50 1011.67 1011.51 1012.43 1012.20 1011.77 1012.03 1012.37 1013.01 1013.56 1014.42 1015.08 1015.68 1015.82 1015.58 1014.52 1013.01 1012.94 1012.58 1012.15 1011.70 1010.55 1010.20 1010.99 1010.87 1011.17 1011.44 1012.17 1012.65 1013.16 1013.72
Wind_Speed
17 22 9 15 19 10 7 7 6 7 7 7 6 4 3 6 6 4 3 3 5 9 11 10 4 4 1 2 3 3 5 7 6 8 10 11 11 6 4 6 4 6 4 8 17
12 18 14 9 16 19 13 9 13 17 12 12 4 2 4 7 7 7 4 1 5 9 6 5 2 5 3 2 1 4 5 4 6 5 6 12 10 11 7 8 7 8 6 11 17
10 10 18 12 7 17 17 14 9 14 13 7 6 11 9 9 6 5 5 4 4 8 3 3 3 0 2 2 1 1 2 4 3 5 2 9 7 8 8 11 9 11 12 16 16
9 8 12 14 13 11 17 16 14 15 16 14 9 8 14 7 7 6 7 4 3 4 4 3 3 3 3 5 2 4 2 3 3 3 1 5 4 6 10 3 5 3 15 16 17
10 4 6 10 15 10 14 15 16 15 17 14 12 7 8 7 2 7 5 5 6 3 3 4 5 3 5 3 4 4 4 3 4 2 2 2 4 7 9 10 3 2 9 15 15
4 6 10 6 11 17 13 16 17 15 17 17 16 15 3 7 4 5 4 4 3 4 3 3 3 1 3 1 3 3 4 4 2 3 2 2 3 1 6 9 8 7 11 13 15
4 7 8 5 8 18 14 15 16 17 16 15 16 8 8 10 2 6 5 2 1 2 5 2 3 2 4 5 3 5 5 4 5 4 1 2 8 10 7 2 10 11 10 12 14
8 9 8 9 9 11 7 17 15 15 18 15 13 9 6 4 3 5 7 6 3 3 4 5 3 7 1 6 4 5 3 6 7 6 4 4 10 0 5 5 9 11 11 11 13
7 7 4 7 8 7 5 12 15 18 15 14 6 7 5 5 5 7 7 8 7 6 4 5 4 4 5 6 4 5 6 11 7 6 4 10 7 5 2 4 9 10 10 10 12
6 3 3 5 11 9 2 5 13 17 11 6 2 3 6 7 8 8 6 11 6 11 8 5 5 7 8 9 9 8 7 2 9 6 8 10 14 4 3 5 9 10 10 10 12
7 9 8 7 7 11 3 8 9 5 9 6 11 2 3 9 9 11 8 11 10 12 8 11 8 12 16 16 8 6 9 10 3 4 3 11 14 13 10 11 12 11 12 11 12
10 8 6 6 7 12 4 2 6 2 8 12 6 2 8 7 6 13 10 11 13 13 10 7 13 10 4 7 8 8 8 9 4 0 3 8 14 16 15 17 16 16 15 14 13
10 7 6 5 6 7 6 5 3 3 5 10 6 5 7 7 5 17 14 7 12 15 17 10 2 10 10 11 11 9 10 7 4 1 6 8 14 19 11 13 14 13 13 15 15
10 8 5 3 7 5 5 13 5 3 4 10 9 7 7 7 4 7 8 8 7 14 14 10 7 11 11 12 11 11 8 3 3 3 5 2 6 5 6 6 8 9 10 13 13
11 10 8 8 5 4 11 12 8 3 4 14 9 11 13 12 18 10 3 3 13 10 6 5 12 16 14 14 10 2 8 7 4 4 4 9 6 6 1 9 9 5 1 3 2
12 11 9 4 3 1 12 13 5 2 5 6 9 14 20 11 5 12 8 3 7 7 3 6 2 6 4 5 10 12 13 8 3 2 6 11 8 6 7 4 6 5 2 1 3
14 10 8 5 5 8 4 6 4 4 3 4 7 15 20 13 11 21 18 14 10 9 10 7 7 4 8 13 5 8 12 4 3 4 6 3 6 9 3 3 2 5 4 1 2
15 12 5 2 12 9 4 3 5 3 3 3 7 20 11 19 10 19 19 16 13 7 13 12 6 11 9 7 9 13 5 3 7 6 3 4 8 4 4 3 1 3 1 3 5
17 5 4 5 10 8 4 2 2 4 6 3 13 13 5 16 10 16 20 18 17 14 6 10 5 7 10 2 14 8 7 4 4 2 2 7 7 11 5 3 3 3 4 5 6
5 5 5 4 8 4 3 3 1 3 4 4 3 4 8 19 14 17 20 17 15 15 4 5 7 7 4 3 3 5 12 4 3 5 6 6 6 7 4 5 5 6 7 7 7
6 4 4 6 5 2 1 1 1 1 2 4 2 4 5 13 14 16 19 9 16 15 3 6 5 7 7 10 13 6 6 6 5 3 3 3 4 3 5 4 5 7 8 9 9
2 4 2 6 3 1 2 3 4 4 5 4 5 1 4 18 11 16 15 9 18 16 10 4 6 6 13 1 3 13 9 11 4 6 4 3 5 5 5 4 4 6 9 8 9
3 3 2 3 5 4 1 2 1 4 3 4 3 4 4 9 8 11 9 13 17 18 15 10 6 7 5 3 2 7 10 12 9 2 8 5 2 4 4 5 6 9 11 10 10
3 4 2 2 1 6 6 4 4 4 4 4 3 3 2 8 4 12 11 3 13 16 2 7 3 8 11 4 10 10 17 15 14 6 8 16 14 6 6 7 7 10 12 11 10
2 3 2 6 6 7 11 11 8 5 3 5 1 6 8 1 4 6 11 5 10 11 8 8 4 5 3 2 9 8 13 21 23 21 14 10 19 17 10 10 10 12 11 13 14
4 3 1 1 7 9 10 11 14 10 13 8 8 13 11 7 4 5 10 9 7 12 13 9 3 6 2 2 3 10 14 19 22 21 22 21 21 11 10 11 10 13 15 15 15
1 0 3 6 7 11 12 15 18 13 12 8 12 6 10 14 9 4 9 9 5 12 14 10 6 3 3 3 1 11 16 17 16 21 19 24 16 12 14 14 15 16 16 17 16
Wind_Direction
328 336 266 212 187 202 220 249 253 192 190 150 145 177 246 304 309 236 165 12 331 315 302 284 248 354 159 62 353 299 233 212 187 198 129 154 157 181 57 128 176 158 10 100 139
326 330 344 233 194 175 184 215 214 113 77 33 17 315 316 335 251 221 81 222 290 299 281 332 13 354 127 95 334 270 254 203 37 45 158 175 180 162 177 168 182 166 112 147 153
290 318 327 343 238 178 178 182 206 142 125 140 1 326 335 312 250 180 150 189 243 270 270 283 279 343 191 158 71 116 254 105 106 69 358 164 206 164 208 192 194 191 155 156 167
242 287 319 334 340 210 181 180 171 147 149 143 138 327 343 274 217 129 161 200 224 264 222 203 199 192 213 179 135 205 87 42 94 55 89 169 205 209 230 146 354 121 155 170 180
241 237 273 321 325 299 194 181 181 174 157 164 149 86 28 250 211 135 179 186 181 188 202 188 175 172 206 149 157 213 148 104 92 80 37 15 218 242 228 243 85 154 175 183 189
333 268 234 254 316 310 211 185 186 179 172 173 142 142 108 250 99 163 152 159 143 150 136 195 167 101 112 113 236 103 160 139 147 124 69 271 215 274 216 223 203 192 205 201 199
278 285 297 213 300 295 214 195 191 173 172 166 164 159 165 230 274 181 159 125 117 148 136 108 122 189 148 133 126 140 154 181 194 179 133 286 246 226 246 208 234 212 218 214 209
265 248 300 195 226 309 210 179 188 180 159 167 169 199 219 138 180 199 164 122 104 87 112 127 143 106 52 113 134 187 234 209 129 186 132 218 251 284 136 232 237 233 223 209 207
244 216 301 320 197 285 351 186 179 172 146 140 147 224 231 119 177 176 192 153 124 119 104 134 162 117 150 172 165 200 239 214 157 215 149 207 258 80 2 254 251 241 235 210 205
232 223 252 297 215 230 189 219 166 136 129 110 51 220 170 205 164 164 185 161 135 135 124 158 173 175 202 197 206 208 227 193 237 146 216 209 249 197 169 256 249 251 240 222 218
226 214 226 241 232 216 147 126 149 130 179 160 193 240 156 115 138 180 175 162 157 175 176 185 204 197 201 211 246 288 213 238 120 72 270 241 255 258 256 231 244 243 243 228 227
217 206 228 243 244 200 104 42 69 19 167 247 284 200 153 159 131 169 184 177 173 187 166 169 227 217 225 170 199 207 210 225 72 97 265 284 273 271 249 240 236 238 236 230 219
210 195 215 240 217 185 150 149 77 352 131 205 235 154 172 186 170 173 186 185 196 188 188 201 96 132 159 180 187 207 217 202 288 163 230 290 271 253 233 252 241 236 247 245 229
197 177 187 165 117 165 159 130 95 54 135 160 197 191 170 164 112 138 201 168 187 195 194 227 128 180 185 194 196 205 209 234 202 258 267 339 287 187 189 208 200 215 229 238 243
191 165 178 204 115 196 134 114 79 49 218 154 158 145 161 173 133 186 139 184 165 163 180 164 176 176 194 200 191 147 148 177 181 236 330 209 253 237 98 241 207 162 110 222 301
178 161 167 165 86 66 126 105 73 190 227 150 141 172 162 166 147 136 161 31 117 138 214 103 347 167 137 136 190 134 121 105 122 233 245 224 222 251 203 241 145 169 91 198 217
167 149 184 161 135 134 123 89 124 237 12 162 156 163 160 159 143 165 173 171 163 146 177 133 150 121 152 120 149 170 159 110 203 212 240 103 222 273 145 172 268 309 307 117 163
146 137 166 139 135 118 34 94 188 158 182 307 151 162 174 149 153 174 177 181 209 205 152 171 189 177 178 197 175 186 191 184 208 201 165 139 230 237 91 111 338 334 3 135 154
129 123 132 136 136 105 83 254 157 172 136 140 145 159 134 172 140 178 190 192 187 197 154 169 112 129 177 150 150 171 200 43 95 38 267 197 231 273 177 163 177 170 180 166 156
111 121 120 117 132 115 115 259 310 349 109 49 195 203 163 174 162 186 187 198 186 193 274 156 113 178 127 149 224 212 143 140 217 202 233 194 252 247 191 172 160 175 187 167 162
131 114 116 136 134 65 202 84 294 224 15 103 33 177 194 178 182 189 185 164 178 181 219 149 109 155 165 213 181 160 183 215 182 277 259 270 219 85 153 163 176 185 184 174 173
107 89 143 202 102 102 183 188 207 131 55 108 95 335 264 174 172 187 188 190 179 171 165 162 108 160 191 58 340 227 227 194 217 185 244 333 259 156 150 172 197 185 180 176 174
79 96 84 285 169 173 111 271 219 118 155 160 146 133 311 193 172 188 187 193 181 189 176 167 170 129 188 215 195 228 216 230 248 318 206 228 233 152 173 216 202 202 182 183 187
103 127 125 238 246 161 165 193 163 151 161 147 126 138 37 199 59 181 178 140 194 201 154 177 223 231 232 234 155 195 209 213 215 224 239 229 260 181 204 226 195 199 189 186 185
357 159 186 174 212 212 196 166 174 178 199 183 186 226 138 267 136 187 163 139 185 188 182 197 192 197 100 124 194 204 207 208 218 224 227 245 235 243 211 221 206 197 191 186 189
142 170 171 28 172 194 207 202 186 173 171 195 215 198 171 157 147 202 168 183 174 185 187 198 168 167 119 125 209 236 236 224 224 231 243 255 254 257 242 216 209 201 190 199 204
337 164 153 172 183 187 214 203 203 178 212 208 198 170 196 228 174 213 284 196 180 177 192 178 144 139 189 162 340 266 226 234 238 226 230 236 241 235 244 235 227 212 202 205 208